Вернуться в каталог

YAOGAN-35 05A

АктивенВоенныеVLEO
NORAD 53760·PAYLOAD·🇨🇳 China

Запущен Sep 6, 2022 с Xichang Satellite Launch Center

Loading…

Ближайшие Пролёты (ближайшие 24 часа)

TLE

СвежийSource: Space-Track

Эпоха: Sep 14, 2026, 16:06 UTC

1 53760U 22109A   26257.67130448  .00007346  00000-0  30638-3 0  9993
2 53760  35.0066 136.2545 0004748  87.2933 272.8325 15.22971107224264

Отслеживайте YAOGAN-35 05A в реальном времени с AllMySat

Download on the App Store